Torna al catalogo

SL-14 R/B

AttivoPO
NORAD 17178·ROCKET BODY·🇷🇺 Russia

Lanciato Dec 2, 1986 da Plesetsk Cosmodrome

Loading…

Prossimi Passaggi (prossime 24 ore)

TLE

AggiornatoSource: Space-Track

Epoca: Sep 14, 2026, 15:42 UTC

1 17178U 86094B   26257.65420646  .00000015  00000-0  36111-4 0  9998
2 17178  82.6064 307.6677 0001440 291.4976 243.3991 12.42050916803715

Traccia SL-14 R/B in tempo reale con AllMySat

Download on the App Store